Location: Cypress Hills Dark-Sky Preserve - CHICO
(49.6176°N, 110.2634°W)
Time: 00:14:57
(UTC-06:00)

Amateur Radio Satellites - All Passes

Search period start: 30 October 2014 23:44
Search period end: 31 October 2014 23:44
Location: Cypress Hills Dark-Sky Preserve - CHICO, 49.6176°N, 110.2634°W

Satellite Date Start Highest point End Downlink Frequencies (MHz)
Time Altitude Azimuth
FUNcube-1 31 Oct 00:14:04 00:16:25 14° 272° (W) 00:18:46 145.950 - 145.970 MHz USB
RS-15 31 Oct 00:49:53 01:00:17 47° 334° (NNW) 01:10:53 29.354 - 29.394 USB, Beacon 29.352 USB
JAS-1B 31 Oct 01:46:29 01:52:04 24° 91° (E) 01:58:21 435.800 - 435.900 CW/SSB
Oscar 16 31 Oct 01:51:24 01:55:00 19° 90° (E) 01:58:34 437.025 USB, Beacon 2401.1428
Sapphire 31 Oct 02:07:40 02:10:59 17° 105° (ESE) 02:14:18 437.095 MHz 1200 baud AX-25 AFSK
Uribyol 2 31 Oct 02:23:43 02:26:56 16° 88° (E) 02:30:07 436.500 FM
PCSat 31 Oct 02:28:02 02:32:26 26° 110° (ESE) 02:36:51 145.825 MHz
AO-Echo 31 Oct 02:30:06 02:34:22 24° 91° (E) 02:38:35 ?
ITAMSAT 1 31 Oct 02:31:20 02:34:51 18° 89° (E) 02:38:21 435.822 SSB
Oscar 19 31 Oct 02:42:46 02:47:45 49° 99° (E) 02:52:42 437.125 CW, 437.150 USB
RS-15 31 Oct 03:05:53 03:15:52 37° 7° (N) 03:26:05 29.354 - 29.394 USB, Beacon 29.352 USB
AO-27 31 Oct 03:17:54 03:22:54 43° 98° (E) 03:27:51 436.795 MHz FM
Oscar 16 31 Oct 03:29:46 03:34:52 69° 289° (WNW) 03:39:57 437.025 USB, Beacon 2401.1428
Gurwin Techsat 1B 31 Oct 03:30:52 03:35:38 33° 95° (E) 03:40:23 435.225 FM
JAS-1B 31 Oct 03:36:23 03:43:13 81° 288° (WNW) 03:51:26 435.800 - 435.900 CW/SSB
TMSAT-1 31 Oct 03:37:39 03:42:13 29° 93° (E) 03:46:46 436.925 FM
Sapphire 31 Oct 03:48:13 03:53:39 89° 124° (SE) 03:59:08 437.095 MHz 1200 baud AX-25 AFSK
OPAL 31 Oct 04:00:03 04:03:30 19° 54° (NE) 04:06:56 ?
Uribyol 2 31 Oct 04:01:50 04:07:05 81° 287° (WNW) 04:12:15 436.500 FM
AO-Echo 31 Oct 04:08:15 04:13:30 59° 290° (WNW) 04:18:41 ?
ITAMSAT 1 31 Oct 04:09:42 04:14:56 75° 288° (WNW) 04:20:07 435.822 SSB
PCSat 31 Oct 04:10:05 04:15:28 63° 310° (NW) 04:20:53 145.825 MHz
Oscar 19 31 Oct 04:22:34 04:26:53 28° 298° (WNW) 04:31:11 437.125 CW, 437.150 USB
Uosat F 31 Oct 04:23:23 04:24:39 11° 85° (E) 04:25:55 435.120 FM
JAS-2 31 Oct 04:44:03 04:45:39 11° 76° (ENE) 04:47:15 435.800 - 435.900 CW/SSB, 435.910 FM
AO-7 31 Oct 04:50:37 04:57:58 33° 95° (E) 05:05:17 29.400 - 29.500 MHz
AO-27 31 Oct 04:57:41 05:02:18 32° 297° (WNW) 05:06:53 436.795 MHz FM
Gurwin Techsat 1B 31 Oct 05:10:43 05:15:44 43° 294° (WNW) 05:20:42 435.225 FM
Oscar 16 31 Oct 05:11:00 05:13:20 13° 308° (NW) 05:15:40 437.025 USB, Beacon 2401.1428
TMSAT-1 31 Oct 05:17:16 05:22:22 48° 293° (WNW) 05:27:26 436.925 FM
RS-15 31 Oct 05:19:50 05:30:48 62° 39° (NE) 05:42:11 29.354 - 29.394 USB, Beacon 29.352 USB
JAS-1B 31 Oct 05:28:21 05:33:08 21° 307° (NW) 05:38:28 435.800 - 435.900 CW/SSB
Sapphire 31 Oct 05:33:22 05:37:48 25° 327° (NNW) 05:42:16 437.095 MHz 1200 baud AX-25 AFSK
OPAL 31 Oct 05:36:42 05:41:49 82° 253° (WSW) 05:46:54 ?
Uribyol 2 31 Oct 05:42:47 05:45:46 16° 307° (NW) 05:48:45 436.500 FM
AO-Echo 31 Oct 05:49:15 05:51:12 12° 310° (NW) 05:53:10 ?
Hamsat 31 Oct 05:50:05 05:50:30 10° 86° (E) 05:50:54 145.90 MHz
ITAMSAT 1 31 Oct 05:50:49 05:53:35 15° 308° (NW) 05:56:20 435.822 SSB
STRAND 1 31 Oct 05:55:02 05:59:01 23° 59° (ENE) 06:03:02 ?
PCSat 31 Oct 05:56:02 05:59:58 20° 333° (NNW) 06:03:54 145.825 MHz
Uosat F 31 Oct 05:59:16 06:04:21 74° 104° (ESE) 06:09:23 435.120 FM
Saudisat 1A 31 Oct 06:23:29 06:27:25 33° 119° (ESE) 06:31:23 436.775 MHz
JAS-2 31 Oct 06:24:55 06:32:33 50° 97° (E) 06:40:00 435.800 - 435.900 CW/SSB, 435.910 FM
AO-7 31 Oct 06:43:06 06:51:22 69° 296° (WNW) 06:59:37 29.400 - 29.500 MHz
OPAL 31 Oct 07:19:17 07:21:28 13° 271° (W) 07:23:39 ?
Sapphire 31 Oct 07:20:51 07:23:15 13° 352° (N) 07:25:39 437.095 MHz 1200 baud AX-25 AFSK
Hamsat 31 Oct 07:22:52 07:27:06 87° 104° (ESE) 07:31:21 145.90 MHz
RS-15 31 Oct 07:32:32 07:43:10 54° 245° (WSW) 07:54:15 29.354 - 29.394 USB, Beacon 29.352 USB
STRAND 1 31 Oct 07:32:43 07:37:49 63° 258° (WSW) 07:42:57 ?
Uosat F 31 Oct 07:39:01 07:42:37 20° 303° (WNW) 07:46:12 435.120 FM
PCSat 31 Oct 07:43:25 07:45:37 12° 359° (N) 07:47:48 145.825 MHz
MaSat-1 31 Oct 07:45:01 07:47:37 66° 57° (ENE) 07:50:01 437.345 MHz
Saudisat 1A 31 Oct 08:02:43 08:06:55 42° 319° (NW) 08:11:08 436.775 MHz
JAS-2 31 Oct 08:10:07 08:17:28 47° 297° (WNW) 08:24:46 435.800 - 435.900 CW/SSB, 435.910 FM
SO-67 31 Oct 08:23:58 08:27:24 58° 101° (E) 08:30:48 435.3500 MHz FM
AO-7 31 Oct 08:36:54 08:42:48 22° 318° (NW) 08:48:43 29.400 - 29.500 MHz
Hamsat 31 Oct 09:00:30 09:02:27 13° 302° (WNW) 09:04:24 145.90 MHz
Sapphire 31 Oct 09:05:49 09:09:04 16° 19° (NNE) 09:12:18 437.095 MHz 1200 baud AX-25 AFSK
HO-68 31 Oct 09:23:12 09:29:10 27° 92° (E) 09:35:03 435.675 MHz FM
PCSat 31 Oct 09:27:30 09:31:18 19° 26° (NNE) 09:35:06 145.825 MHz
Saudisat 1A 31 Oct 09:44:59 09:47:35 15° 342° (NNW) 09:50:12 436.775 MHz
RS-15 31 Oct 09:48:50 09:52:46 12° 268° (W) 09:56:45 29.354 - 29.394 USB, Beacon 29.352 USB
JAS-2 31 Oct 09:56:59 10:00:42 14° 319° (NW) 10:04:27 435.800 - 435.900 CW/SSB, 435.910 FM
SO-67 31 Oct 09:58:20 09:59:56 13° 299° (WNW) 10:01:31 435.3500 MHz FM
Oscar 11 31 Oct 10:04:30 10:07:13 16° 89° (E) 10:09:55 145.825 FM, Beacon 2401.500 USB
ISS 31 Oct 10:15:51 10:16:29 10° 134° (SE) 10:17:07 145.800 FM
FUNcube-1 31 Oct 10:22:47 10:23:17 10° 85° (E) 10:23:46 145.950 - 145.970 MHz USB
KITSAT 1 31 Oct 10:37:57 10:44:25 28° 106° (ESE) 10:50:53 435.175 FM
Sapphire 31 Oct 10:48:51 10:54:00 41° 43° (NE) 10:59:07 437.095 MHz 1200 baud AX-25 AFSK
UKube-1 31 Oct 11:04:23 11:08:44 60° 102° (ESE) 11:13:02 145.840 MHz, 145.915 MHz
HO-68 31 Oct 11:10:19 11:17:31 73° 292° (WNW) 11:24:39 435.675 MHz FM
PCSat 31 Oct 11:10:31 11:15:53 57° 49° (NE) 11:21:14 145.825 MHz
ZACube-1 31 Oct 11:13:25 11:17:16 33° 96° (E) 11:21:03 437.345 MHz
Saudisat 1A 31 Oct 11:27:12 11:28:58 12° 6° (N) 11:30:44 436.775 MHz
Oscar 11 31 Oct 11:39:33 11:43:49 62° 288° (WNW) 11:48:04 145.825 FM, Beacon 2401.500 USB
ISS 31 Oct 11:49:19 11:52:32 49° 152° (SSE) 11:55:47 145.800 FM
SO-50 31 Oct 11:51:54 11:56:08 41° 121° (ESE) 12:00:31 436.795 FM
FUNcube-1 31 Oct 11:56:07 12:00:22 89° 104° (ESE) 12:04:31 145.950 - 145.970 MHz USB
Oscar 19 31 Oct 12:26:50 12:30:24 19° 57° (ENE) 12:33:58 437.125 CW, 437.150 USB
KITSAT 1 31 Oct 12:30:53 12:38:59 84° 308° (NW) 12:47:08 435.175 FM
Sapphire 31 Oct 12:32:22 12:37:30 44° 244° (WSW) 12:42:37 437.095 MHz 1200 baud AX-25 AFSK
UOSAT-12 31 Oct 12:37:59 12:40:32 15° 110° (ESE) 12:43:05 437.025 FM, 437.400 FM
JAS-1B 31 Oct 12:38:46 12:43:18 25° 56° (NE) 12:47:58 435.800 - 435.900 CW/SSB
UKube-1 31 Oct 12:41:26 12:44:31 19° 301° (WNW) 12:47:36 145.840 MHz, 145.915 MHz
ZACube-1 31 Oct 12:49:59 12:53:36 28° 295° (WNW) 12:57:10 437.345 MHz
PCSat 31 Oct 12:54:24 12:59:01 29° 249° (WSW) 13:03:36 145.825 MHz
HO-68 31 Oct 12:59:12 13:04:07 20° 314° (NW) 13:09:01 435.675 MHz FM
AO-27 31 Oct 13:03:11 13:06:43 19° 55° (NE) 13:10:16 436.795 MHz FM
Saudisat 1A 31 Oct 13:06:30 13:10:06 23° 30° (NNE) 13:13:40 436.775 MHz
Oscar 16 31 Oct 13:12:15 13:17:05 42° 66° (ENE) 13:21:55 437.025 USB, Beacon 2401.1428
Gurwin Techsat 1B 31 Oct 13:19:29 13:22:23 15° 52° (NE) 13:25:16 435.225 FM
ISS 31 Oct 13:25:54 13:29:13 64° 351° (N) 13:32:33 145.800 FM
TMSAT-1 31 Oct 13:26:27 13:28:51 13° 51° (NE) 13:31:14 436.925 FM
SO-50 31 Oct 13:32:28 13:36:45 38° 322° (NW) 13:41:10 436.795 FM
FUNcube-1 31 Oct 13:34:16 13:36:05 13° 304° (WNW) 13:37:53 145.950 - 145.970 MHz USB
Uribyol 2 31 Oct 13:45:17 13:50:05 38° 65° (ENE) 13:54:54 436.500 FM
AO-Echo 31 Oct 13:47:00 13:51:47 45° 67° (ENE) 13:56:44 ?
ITAMSAT 1 31 Oct 13:53:08 13:58:01 42° 66° (ENE) 14:02:56 435.822 SSB
Oscar 19 31 Oct 14:04:03 14:09:11 77° 256° (WSW) 14:14:21 437.125 CW, 437.150 USB
AO-7 31 Oct 14:05:16 14:10:55 21° 40° (NE) 14:16:34 29.400 - 29.500 MHz
UOSAT-12 31 Oct 14:15:18 14:19:58 87° 130° (SE) 14:24:45 437.025 FM, 437.400 FM
JAS-1B 31 Oct 14:28:00 14:33:37 59° 259° (WSW) 14:39:23 435.800 - 435.900 CW/SSB
KITSAT 1 31 Oct 14:28:20 14:35:32 34° 333° (NNW) 14:42:47 435.175 FM
AO-27 31 Oct 14:40:23 14:45:37 83° 255° (WSW) 14:50:54 436.795 MHz FM
Saudisat 1A 31 Oct 14:45:44 14:50:12 83° 231° (SW) 14:54:37 436.775 MHz
Oscar 16 31 Oct 14:52:01 14:56:34 31° 265° (W) 15:01:08 437.025 USB, Beacon 2401.1428
Gurwin Techsat 1B 31 Oct 14:56:12 15:01:30 76° 72° (ENE) 15:06:50 435.225 FM
TMSAT-1 31 Oct 15:02:34 15:07:49 66° 71° (ENE) 15:13:06 436.925 FM
ISS 31 Oct 15:02:46 15:06:07 70° 12° (NNE) 15:09:27 145.800 FM
JAS-2 31 Oct 15:04:08 15:04:50 10° 35° (NE) 15:05:33 435.800 - 435.900 CW/SSB, 435.910 FM
SO-50 31 Oct 15:15:46 15:18:36 16° 345° (NNW) 15:21:28 436.795 FM
Uribyol 2 31 Oct 15:24:48 15:29:35 36° 264° (W) 15:34:24 436.500 FM
AO-Echo 31 Oct 15:26:21 15:30:44 29° 267° (W) 15:35:15 ?
ITAMSAT 1 31 Oct 15:32:57 15:37:37 33° 265° (W) 15:42:20 435.822 SSB
Uosat F 31 Oct 15:39:22 15:43:30 26° 60° (ENE) 15:47:39 435.120 FM
Oscar 19 31 Oct 15:47:36 15:49:24 12° 275° (W) 15:51:13 437.125 CW, 437.150 USB
AO-7 31 Oct 15:54:07 16:02:15 65° 63° (ENE) 16:10:25 29.400 - 29.500 MHz
UOSAT-12 31 Oct 15:56:51 16:00:44 25° 331° (NNW) 16:04:38 437.025 FM, 437.400 FM
AO-27 31 Oct 16:23:31 16:25:57 13° 274° (W) 16:28:24 436.795 MHz FM
Saudisat 1A 31 Oct 16:27:07 16:29:03 13° 250° (WSW) 16:30:59 436.775 MHz
KITSAT 1 31 Oct 16:27:14 16:33:38 25° 2° (N) 16:40:01 435.175 FM
Gurwin Techsat 1B 31 Oct 16:38:30 16:42:04 18° 271° (W) 16:45:40 435.225 FM
ISS 31 Oct 16:39:34 16:42:43 38° 211° (SSW) 16:45:50 145.800 FM
JAS-2 31 Oct 16:41:48 16:47:41 35° 58° (ENE) 16:54:11 435.800 - 435.900 CW/SSB, 435.910 FM
TMSAT-1 31 Oct 16:44:17 16:48:13 21° 270° (W) 16:52:11 436.925 FM
Hamsat 31 Oct 16:46:43 16:48:57 14° 59° (ENE) 16:51:11 145.90 MHz
SO-50 31 Oct 16:58:28 17:01:04 14° 10° (N) 17:03:41 436.795 FM
Uosat F 31 Oct 17:17:06 17:22:01 52° 259° (W) 17:26:58 435.120 FM
UOSAT-12 31 Oct 17:40:08 17:42:30 14° 355° (N) 17:44:52 437.025 FM, 437.400 FM
OPAL 31 Oct 17:43:18 17:46:32 17° 92° (E) 17:49:45 ?
AO-7 31 Oct 17:48:07 17:55:32 36° 264° (W) 18:03:01 29.400 - 29.500 MHz
HO-68 31 Oct 18:16:58 18:17:11 10° 33° (NNE) 18:17:25 435.675 MHz FM
Hamsat 31 Oct 18:20:10 18:24:21 77° 257° (WSW) 18:28:33 145.90 MHz
KITSAT 1 31 Oct 18:24:05 18:31:33 38° 31° (NNE) 18:38:58 435.175 FM
JAS-2 31 Oct 18:26:01 18:32:22 58° 261° (W) 18:39:34 435.800 - 435.900 CW/SSB, 435.910 FM
SO-50 31 Oct 18:38:52 18:43:06 30° 34° (NE) 18:47:24 436.795 FM
SO-67 31 Oct 19:00:32 19:03:44 37° 71° (ENE) 19:06:57 435.3500 MHz FM
OPAL 31 Oct 19:21:01 19:25:59 73° 291° (WNW) 19:30:54 ?
UOSAT-12 31 Oct 19:21:20 19:24:30 17° 19° (NNE) 19:27:40 437.025 FM, 437.400 FM
STRAND 1 31 Oct 19:39:05 19:43:42 32° 95° (E) 19:48:17 ?
RS-15 31 Oct 19:54:38 20:00:56 17° 96° (E) 20:07:12 29.354 - 29.394 USB, Beacon 29.352 USB
HO-68 31 Oct 19:56:33 20:02:49 34° 56° (NE) 20:09:07 435.675 MHz FM
JAS-2 31 Oct 20:17:16 20:19:15 11° 284° (WNW) 20:21:17 435.800 - 435.900 CW/SSB, 435.910 FM
SO-50 31 Oct 20:19:15 20:24:03 66° 234° (SW) 20:28:54 436.795 FM
KITSAT 1 31 Oct 20:19:40 20:27:47 82° 236° (SW) 20:35:51 435.175 FM
UKube-1 31 Oct 20:30:27 20:32:37 14° 56° (NE) 20:34:46 145.840 MHz, 145.915 MHz
SO-67 31 Oct 20:34:33 20:36:52 17° 268° (W) 20:39:12 435.3500 MHz FM
UOSAT-12 31 Oct 21:01:09 21:05:46 48° 42° (NE) 21:10:18 437.025 FM, 437.400 FM
OPAL 31 Oct 21:01:34 21:04:03 14° 310° (NW) 21:06:32 ?
Oscar 11 31 Oct 21:03:36 21:06:59 23° 63° (ENE) 21:10:22 145.825 FM, Beacon 2401.500 USB
STRAND 1 31 Oct 21:18:10 21:23:00 41° 294° (WNW) 21:27:47 ?
FUNcube-1 31 Oct 21:21:52 21:24:49 18° 60° (ENE) 21:27:43 145.950 - 145.970 MHz USB
HO-68 31 Oct 21:43:04 21:50:10 63° 257° (WSW) 21:57:20 435.675 MHz FM
RS-15 31 Oct 22:00:12 22:10:58 67° 120° (ESE) 22:21:45 29.354 - 29.394 USB, Beacon 29.352 USB
SO-50 31 Oct 22:02:32 22:03:45 11° 253° (WSW) 22:04:57 436.795 FM
UKube-1 31 Oct 22:03:47 22:08:09 90° 74° (ENE) 22:12:33 145.840 MHz, 145.915 MHz
ZACube-1 31 Oct 22:13:38 22:17:58 49° 70° (ENE) 22:22:14 437.345 MHz
KITSAT 1 31 Oct 22:16:22 22:22:01 21° 257° (WSW) 22:27:40 435.175 FM
Oscar 11 31 Oct 22:38:46 22:42:55 45° 261° (W) 22:47:05 145.825 FM, Beacon 2401.500 USB
UOSAT-12 31 Oct 22:41:35 22:45:47 32° 242° (WSW) 22:49:54 437.025 FM, 437.400 FM
FUNcube-1 31 Oct 22:56:15 23:00:45 68° 258° (WSW) 23:05:10 145.950 - 145.970 MHz USB
MaSat-1 31 Oct 22:58:23 23:02:08 66° 119° (ESE) 23:05:29 437.345 MHz
HO-68 31 Oct 23:36:21 23:39:21 13° 278° (W) 23:42:22 435.675 MHz FM
